User: anonymous   Login
Location: Kernascl�den
(48.0062°N, 3.3198°W)
Time: 07:07:37
(UTC+00:00)
Language:

NOSS 3-1 (C) - Orbit

View from above orbital plane
View from above orbital plane
View from above satellite
View from above satellite

Ground track
Ground track

The orbit data is extracted from the following two-line orbital elements,

1 26907U 01040C   21097.87690025 0.00000024  00000-0  20697-4 0    02
2 26907  63.4042  69.9666 0497554   2.2264 357.7736 13.41330648    08
Epoch (UTC): 07 April 2021 21:02:44
Eccentricity: 0.0497554
inclination: 63.4042°
perigee height: 732 km
apogee height: 1476 km
right ascension of ascending node: 69.9666°
argument of perigee: 2.2264°
revolutions per day: 13.41330648
mean anomaly at epoch: 357.7736°
orbit number at epoch: 0

The dashed part of the orbit path shows where the satellite is in the earth's shadow,  

DLR